Satellite-Ground Cal/Val Site Overpasses Predictions

Prediction of Satellite NPP Overpassing Cal/Val Site: Antarctic Dome C

Ground Cal/Val Site Location: Latitude: -75.10, Longitude: 123.35; Satellite-Ground Site NADIR distance within 100 km.

Table of predicted overpasses for the next 14.0 days since TLE Epoch: 10/22/2015
Interval Starting Time Ending Time Minimum Distance Time Minimum Distance (km)
1 10/23/2015 14:57:41 10/23/2015 14:58:10 10/23/2015 14:57:56 17.21
2 10/24/2015 14:39:00 10/24/2015 14:39:13 10/24/2015 14:39:06 89.83
3 10/25/2015 07:40:32 10/25/2015 07:40:58 10/25/2015 07:40:45 39.04
4 10/26/2015 07:21:44 10/26/2015 07:22:04 10/26/2015 07:21:54 70.97
5 10/28/2015 15:03:57 10/28/2015 15:04:21 10/28/2015 15:04:09 54.28
6 10/29/2015 14:45:07 10/29/2015 14:45:31 10/29/2015 14:45:19 54.82
7 10/30/2015 07:46:47 10/30/2015 07:47:06 10/30/2015 07:46:57 74.38
8 10/31/2015 07:27:53 10/31/2015 07:28:21 10/31/2015 07:28:07 33.54
9 11/02/2015 15:10:17 11/02/2015 15:10:28 11/02/2015 15:10:22 92.09
10 11/03/2015 14:51:16 11/03/2015 14:51:45 11/03/2015 14:5
